GFSWCAN_prec_pwat_309.txt.gz
Precipitable_Water
0.74 0.71 0.61 0.50 0.47 0.47 0.47 0.48 0.49 0.49 0.47 0.49 0.50 0.51 0.53 0.54 0.54 0.53 0.48 0.55 0.44 0.32 0.32 0.31 0.32 0.28 0.27 0.26 0.21 0.25 0.24 0.23 0.22 0.16 0.15 0.15 0.14 0.15 0.14 0.15 0.14 0.13 0.13 0.13 0.13 0.11 0.10 0.20 0.19 0.17 0.22 0.25 0.25 0.28
0.65 0.54 0.42 0.45 0.47 0.48 0.48 0.48 0.48 0.48 0.49 0.49 0.50 0.50 0.51 0.52 0.54 0.56 0.43 0.53 0.53 0.38 0.33 0.38 0.38 0.38 0.35 0.35 0.29 0.29 0.25 0.25 0.24 0.19 0.19 0.19 0.16 0.17 0.16 0.12 0.18 0.14 0.17 0.16 0.16 0.15 0.20 0.24 0.26 0.29 0.29 0.27 0.28 0.28
0.48 0.42 0.47 0.49 0.46 0.45 0.46 0.47 0.49 0.50 0.51 0.51 0.52 0.52 0.52 0.52 0.52 0.53 0.48 0.50 0.44 0.35 0.32 0.32 0.28 0.34 0.40 0.40 0.41 0.27 0.29 0.30 0.27 0.29 0.24 0.21 0.17 0.20 0.15 0.15 0.17 0.20 0.23 0.19 0.20 0.22 0.25 0.26 0.28 0.29 0.29 0.28 0.28 0.28
0.45 0.47 0.44 0.43 0.44 0.45 0.45 0.45 0.47 0.51 0.51 0.51 0.53 0.53 0.51 0.51 0.51 0.51 0.45 0.47 0.44 0.35 0.24 0.25 0.34 0.30 0.37 0.37 0.37 0.39 0.35 0.35 0.32 0.29 0.24 0.22 0.19 0.24 0.19 0.20 0.19 0.21 0.23 0.21 0.20 0.23 0.24 0.26 0.26 0.26 0.26 0.28 0.27 0.27
0.38 0.38 0.39 0.39 0.39 0.38 0.41 0.44 0.46 0.47 0.50 0.50 0.52 0.53 0.51 0.50 0.49 0.48 0.47 0.46 0.47 0.34 0.23 0.24 0.29 0.33 0.36 0.37 0.36 0.37 0.33 0.30 0.29 0.25 0.23 0.21 0.24 0.23 0.23 0.22 0.19 0.23 0.21 0.18 0.17 0.23 0.22 0.22 0.25 0.25 0.24 0.23 0.26 0.26
0.36 0.38 0.40 0.42 0.43 0.44 0.46 0.48 0.48 0.49 0.51 0.50 0.52 0.54 0.52 0.49 0.49 0.43 0.31 0.42 0.47 0.44 0.29 0.18 0.28 0.30 0.32 0.32 0.32 0.30 0.31 0.31 0.30 0.25 0.23 0.26 0.29 0.24 0.18 0.17 0.20 0.23 0.26 0.26 0.22 0.24 0.22 0.20 0.19 0.22 0.22 0.22 0.23 0.22
0.41 0.41 0.42 0.44 0.45 0.47 0.47 0.48 0.50 0.51 0.52 0.51 0.53 0.55 0.50 0.49 0.47 0.36 0.30 0.38 0.46 0.45 0.29 0.21 0.21 0.28 0.29 0.29 0.29 0.30 0.32 0.30 0.29 0.26 0.23 0.24 0.24 0.24 0.20 0.15 0.18 0.23 0.25 0.24 0.23 0.19 0.14 0.15 0.15 0.18 0.19 0.19 0.19 0.18
0.40 0.42 0.43 0.44 0.46 0.48 0.49 0.50 0.51 0.53 0.53 0.52 0.53 0.54 0.50 0.50 0.48 0.39 0.44 0.47 0.47 0.36 0.31 0.20 0.20 0.22 0.28 0.23 0.24 0.30 0.26 0.27 0.26 0.24 0.24 0.22 0.23 0.22 0.17 0.16 0.16 0.18 0.19 0.18 0.18 0.17 0.16 0.16 0.14 0.13 0.14 0.15 0.14 0.14
0.42 0.43 0.45 0.48 0.50 0.51 0.50 0.51 0.52 0.55 0.54 0.53 0.55 0.52 0.46 0.41 0.32 0.35 0.46 0.47 0.46 0.36 0.23 0.22 0.18 0.15 0.26 0.24 0.26 0.26 0.26 0.20 0.25 0.21 0.21 0.22 0.19 0.16 0.16 0.15 0.14 0.15 0.15 0.15 0.15 0.15 0.15 0.12 0.12 0.13 0.13 0.13 0.12 0.11
0.43 0.44 0.45 0.48 0.50 0.53 0.51 0.51 0.53 0.56 0.55 0.54 0.47 0.38 0.30 0.36 0.45 0.43 0.34 0.29 0.30 0.30 0.28 0.20 0.22 0.18 0.23 0.23 0.22 0.22 0.23 0.19 0.17 0.19 0.22 0.18 0.17 0.18 0.17 0.16 0.15 0.16 0.16 0.16 0.12 0.12 0.11 0.10 0.11 0.11 0.11 0.11 0.11 0.11
0.42 0.43 0.46 0.50 0.52 0.55 0.54 0.54 0.54 0.57 0.52 0.43 0.35 0.31 0.39 0.45 0.35 0.29 0.23 0.21 0.22 0.19 0.23 0.24 0.24 0.22 0.27 0.19 0.19 0.23 0.20 0.19 0.15 0.17 0.17 0.16 0.13 0.15 0.15 0.15 0.16 0.16 0.16 0.15 0.14 0.13 0.11 0.10 0.10 0.10 0.10 0.10 0.10 0.11
0.42 0.44 0.47 0.51 0.53 0.53 0.55 0.55 0.55 0.50 0.43 0.40 0.39 0.41 0.38 0.29 0.25 0.20 0.19 0.19 0.18 0.17 0.23 0.22 0.23 0.25 0.24 0.23 0.20 0.22 0.18 0.19 0.14 0.21 0.17 0.13 0.14 0.12 0.12 0.13 0.14 0.15 0.14 0.14 0.13 0.11 0.11 0.10 0.11 0.10 0.10 0.10 0.10 0.11
0.41 0.44 0.46 0.48 0.52 0.54 0.54 0.53 0.55 0.51 0.48 0.43 0.34 0.28 0.25 0.23 0.17 0.16 0.13 0.16 0.18 0.23 0.24 0.24 0.22 0.24 0.23 0.21 0.20 0.20 0.17 0.16 0.21 0.16 0.15 0.14 0.13 0.14 0.13 0.11 0.14 0.15 0.16 0.15 0.12 0.11 0.11 0.11 0.11 0.11 0.11 0.11 0.11 0.12
0.42 0.43 0.44 0.46 0.48 0.50 0.52 0.54 0.52 0.48 0.41 0.30 0.25 0.19 0.19 0.17 0.18 0.17 0.16 0.19 0.25 0.26 0.25 0.25 0.23 0.22 0.19 0.17 0.20 0.17 0.19 0.19 0.15 0.14 0.15 0.18 0.15 0.13 0.18 0.20 0.16 0.15 0.15 0.14 0.11 0.11 0.11 0.11 0.11 0.11 0.12 0.12 0.11 0.12
0.42 0.45 0.45 0.46 0.47 0.51 0.51 0.52 0.50 0.45 0.35 0.26 0.25 0.18 0.19 0.22 0.21 0.22 0.22 0.24 0.25 0.26 0.24 0.22 0.21 0.18 0.14 0.16 0.17 0.18 0.17 0.15 0.16 0.17 0.20 0.23 0.22 0.20 0.23 0.24 0.23 0.22 0.21 0.16 0.12 0.11 0.11 0.11 0.10 0.11 0.12 0.12 0.11 0.13
0.44 0.44 0.44 0.47 0.48 0.49 0.50 0.49 0.46 0.42 0.33 0.28 0.25 0.21 0.23 0.22 0.23 0.24 0.24 0.23 0.26 0.25 0.23 0.20 0.15 0.12 0.12 0.13 0.13 0.13 0.14 0.15 0.19 0.23 0.26 0.27 0.26 0.27 0.28 0.27 0.25 0.24 0.24 0.22 0.16 0.14 0.13 0.12 0.11 0.11 0.12 0.12 0.12 0.13
0.45 0.42 0.49 0.48 0.47 0.47 0.47 0.41 0.37 0.31 0.27 0.25 0.23 0.26 0.24 0.24 0.24 0.26 0.27 0.24 0.25 0.21 0.17 0.16 0.11 0.11 0.13 0.11 0.11 0.14 0.14 0.18 0.23 0.26 0.28 0.28 0.28 0.28 0.29 0.28 0.28 0.26 0.24 0.24 0.20 0.17 0.13 0.13 0.13 0.13 0.11 0.13 0.12 0.12
0.40 0.46 0.48 0.48 0.46 0.44 0.39 0.37 0.31 0.28 0.23 0.24 0.22 0.23 0.25 0.26 0.24 0.24 0.24 0.24 0.22 0.20 0.18 0.15 0.15 0.11 0.10 0.09 0.11 0.15 0.18 0.22 0.25 0.26 0.27 0.28 0.28 0.28 0.28 0.27 0.28 0.27 0.25 0.24 0.22 0.19 0.16 0.13 0.12 0.13 0.13 0.13 0.12 0.12
0.44 0.45 0.46 0.45 0.43 0.37 0.30 0.31 0.31 0.23 0.23 0.24 0.25 0.26 0.26 0.25 0.25 0.24 0.23 0.23 0.22 0.21 0.18 0.16 0.12 0.10 0.11 0.15 0.17 0.20 0.23 0.24 0.24 0.26 0.26 0.27 0.27 0.27 0.26 0.26 0.27 0.27 0.25 0.24 0.23 0.20 0.18 0.14 0.14 0.13 0.14 0.13 0.12 0.12
0.47 0.47 0.46 0.45 0.42 0.33 0.27 0.26 0.29 0.24 0.20 0.22 0.24 0.23 0.23 0.22 0.22 0.22 0.22 0.22 0.20 0.19 0.16 0.14 0.15 0.17 0.19 0.22 0.25 0.25 0.26 0.27 0.26 0.24 0.24 0.25 0.26 0.25 0.23 0.23 0.26 0.27 0.26 0.24 0.23 0.21 0.17 0.15 0.15 0.14 0.13 0.13 0.12 0.13
0.42 0.43 0.44 0.42 0.35 0.31 0.26 0.24 0.23 0.23 0.23 0.22 0.23 0.21 0.19 0.20 0.18 0.16 0.17 0.20 0.18 0.17 0.18 0.21 0.22 0.24 0.26 0.27 0.29 0.29 0.27 0.27 0.25 0.25 0.24 0.24 0.23 0.21 0.21 0.24 0.27 0.27 0.26 0.24 0.22 0.20 0.17 0.15 0.14 0.14 0.13 0.13 0.14 0.16
0.37 0.40 0.36 0.35 0.29 0.27 0.24 0.24 0.23 0.23 0.21 0.19 0.18 0.17 0.15 0.13 0.15 0.18 0.22 0.21 0.21 0.22 0.24 0.25 0.25 0.26 0.26 0.27 0.27 0.28 0.28 0.27 0.26 0.25 0.23 0.21 0.20 0.22 0.25 0.26 0.26 0.26 0.26 0.23 0.21 0.19 0.17 0.16 0.15 0.14 0.13 0.13 0.16 0.17
0.38 0.35 0.31 0.28 0.24 0.22 0.20 0.23 0.19 0.19 0.16 0.16 0.17 0.16 0.16 0.18 0.20 0.23 0.20 0.22 0.23 0.26 0.26 0.27 0.27 0.28 0.27 0.27 0.26 0.23 0.22 0.20 0.19 0.19 0.20 0.20 0.24 0.27 0.27 0.27 0.27 0.26 0.25 0.20 0.20 0.18 0.15 0.14 0.15 0.14 0.14 0.15 0.16 0.17
0.35 0.28 0.24 0.22 0.20 0.17 0.19 0.17 0.19 0.19 0.18 0.18 0.18 0.17 0.19 0.21 0.22 0.21 0.20 0.22 0.24 0.26 0.27 0.26 0.26 0.25 0.22 0.18 0.15 0.16 0.19 0.20 0.20 0.19 0.21 0.24 0.24 0.25 0.26 0.26 0.27 0.26 0.23 0.18 0.16 0.15 0.14 0.14 0.14 0.15 0.15 0.16 0.17 0.16
0.26 0.22 0.22 0.18 0.19 0.17 0.15 0.15 0.16 0.18 0.18 0.19 0.20 0.20 0.21 0.23 0.20 0.19 0.19 0.22 0.25 0.25 0.26 0.26 0.25 0.23 0.16 0.14 0.16 0.19 0.21 0.20 0.18 0.20 0.23 0.24 0.24 0.24 0.24 0.24 0.22 0.19 0.18 0.15 0.13 0.13 0.13 0.14 0.15 0.16 0.17 0.17 0.16 0.16
0.21 0.20 0.17 0.17 0.15 0.13 0.13 0.14 0.16 0.18 0.20 0.20 0.20 0.22 0.22 0.21 0.19 0.18 0.21 0.23 0.24 0.25 0.25 0.24 0.23 0.21 0.15 0.15 0.17 0.19 0.19 0.19 0.21 0.21 0.22 0.23 0.21 0.19 0.17 0.15 0.14 0.14 0.16 0.15 0.14 0.15 0.15 0.16 0.17 0.17 0.16 0.16 0.17 0.16
0.20 0.18 0.19 0.20 0.19 0.18 0.16 0.18 0.20 0.20 0.19 0.19 0.20 0.20 0.20 0.18 0.18 0.21 0.25 0.26 0.25 0.26 0.25 0.24 0.22 0.20 0.16 0.17 0.20 0.19 0.20 0.22 0.20 0.19 0.20 0.18 0.16 0.16 0.15 0.13 0.12 0.14 0.17 0.18 0.18 0.18 0.18 0.18 0.17 0.16 0.16 0.17 0.16 0.16
0.23 0.22 0.18 0.19 0.19 0.20 0.19 0.19 0.19 0.19 0.20 0.23 0.22 0.19 0.19 0.19 0.20 0.24 0.25 0.26 0.25 0.25 0.24 0.23 0.21 0.20 0.17 0.19 0.21 0.21 0.21 0.19 0.19 0.18 0.17 0.16 0.16 0.16 0.16 0.15 0.18 0.20 0.22 0.22 0.21 0.21 0.20 0.18 0.17 0.17 0.16 0.15 0.16 0.17
0.22 0.23 0.23 0.20 0.21 0.21 0.22 0.22 0.22 0.24 0.26 0.24 0.22 0.21 0.22 0.25 0.25 0.25 0.25 0.25 0.25 0.23 0.21 0.19 0.19 0.19 0.18 0.18 0.19 0.20 0.20 0.17 0.16 0.14 0.13 0.12 0.13 0.14 0.15 0.15 0.17 0.19 0.20 0.21 0.22 0.21 0.20 0.19 0.18 0.16 0.16 0.16 0.17 0.16
0.21 0.22 0.19 0.19 0.19 0.20 0.23 0.25 0.24 0.26 0.26 0.26 0.26 0.25 0.24 0.24 0.25 0.25 0.24 0.23 0.22 0.20 0.19 0.18 0.16 0.14 0.13 0.14 0.15 0.17 0.20 0.20 0.18 0.16 0.14 0.13 0.14 0.15 0.15 0.15 0.16 0.18 0.20 0.21 0.20 0.21 0.21 0.18 0.16 0.16 0.16 0.15 0.15 0.14
0.23 0.22 0.21 0.21 0.20 0.22 0.23 0.24 0.24 0.24 0.24 0.23 0.23 0.22 0.21 0.22 0.23 0.23 0.22 0.20 0.19 0.17 0.15 0.14 0.14 0.13 0.13 0.13 0.14 0.15 0.15 0.17 0.18 0.19 0.20 0.20 0.20 0.20 0.20 0.19 0.19 0.20 0.20 0.21 0.20 0.18 0.16 0.15 0.14 0.14 0.14 0.14 0.14 0.14
0.21 0.21 0.20 0.19 0.20 0.22 0.22 0.21 0.21 0.20 0.20 0.20 0.20 0.20 0.20 0.19 0.17 0.18 0.18 0.17 0.15 0.14 0.15 0.15 0.14 0.14 0.16 0.16 0.16 0.16 0.17 0.17 0.17 0.17 0.17 0.18 0.19 0.19 0.19 0.19 0.19 0.19 0.18 0.17 0.17 0.15 0.14 0.13 0.13 0.14 0.14 0.14 0.14 0.13
0.20 0.21 0.20 0.20 0.20 0.20 0.21 0.20 0.19 0.18 0.18 0.17 0.17 0.17 0.16 0.15 0.13 0.14 0.16 0.16 0.15 0.16 0.16 0.16 0.16 0.16 0.16 0.16 0.16 0.16 0.16 0.15 0.15 0.16 0.16 0.17 0.18 0.17 0.16 0.16 0.16 0.16 0.16 0.16 0.15 0.14 0.14 0.14 0.14 0.14 0.14 0.13 0.13 0.12

GFSWCAN_prec_pwat_312.txt.gz
Precipitable_Water
0.70 0.63 0.59 0.58 0.49 0.42 0.45 0.44 0.46 0.48 0.49 0.50 0.51 0.52 0.52 0.53 0.53 0.51 0.47 0.54 0.43 0.33 0.34 0.36 0.34 0.29 0.27 0.26 0.21 0.24 0.23 0.23 0.21 0.17 0.16 0.15 0.15 0.16 0.15 0.16 0.15 0.14 0.13 0.13 0.13 0.11 0.10 0.20 0.18 0.16 0.22 0.27 0.24 0.25
0.58 0.50 0.43 0.42 0.42 0.41 0.43 0.46 0.47 0.49 0.48 0.51 0.52 0.53 0.52 0.54 0.53 0.53 0.41 0.53 0.52 0.37 0.34 0.41 0.38 0.36 0.34 0.33 0.29 0.29 0.24 0.24 0.24 0.19 0.19 0.19 0.16 0.17 0.15 0.12 0.19 0.14 0.17 0.15 0.15 0.15 0.20 0.22 0.25 0.29 0.29 0.27 0.28 0.27
0.41 0.41 0.38 0.37 0.39 0.41 0.41 0.42 0.44 0.45 0.43 0.44 0.47 0.52 0.52 0.53 0.53 0.51 0.45 0.48 0.44 0.35 0.33 0.32 0.27 0.36 0.39 0.38 0.41 0.26 0.28 0.31 0.27 0.30 0.24 0.21 0.16 0.19 0.14 0.15 0.17 0.20 0.22 0.19 0.19 0.20 0.23 0.26 0.28 0.28 0.29 0.27 0.28 0.28
0.36 0.35 0.37 0.39 0.39 0.41 0.41 0.42 0.43 0.43 0.47 0.49 0.50 0.52 0.53 0.53 0.53 0.51 0.43 0.46 0.42 0.35 0.24 0.23 0.35 0.31 0.36 0.39 0.41 0.40 0.35 0.36 0.34 0.31 0.24 0.21 0.18 0.23 0.19 0.20 0.19 0.21 0.23 0.20 0.20 0.23 0.25 0.25 0.26 0.26 0.25 0.27 0.27 0.27
0.36 0.38 0.39 0.39 0.40 0.42 0.45 0.46 0.48 0.48 0.49 0.51 0.52 0.53 0.53 0.55 0.53 0.48 0.46 0.47 0.46 0.34 0.23 0.24 0.30 0.33 0.35 0.36 0.36 0.37 0.35 0.32 0.28 0.24 0.22 0.20 0.24 0.23 0.24 0.22 0.19 0.23 0.21 0.19 0.17 0.23 0.23 0.22 0.24 0.24 0.22 0.23 0.25 0.24
0.38 0.39 0.39 0.42 0.43 0.45 0.47 0.48 0.50 0.51 0.52 0.53 0.54 0.54 0.54 0.56 0.51 0.42 0.31 0.42 0.47 0.44 0.28 0.19 0.29 0.29 0.32 0.32 0.33 0.32 0.32 0.31 0.29 0.26 0.24 0.26 0.29 0.24 0.18 0.17 0.21 0.23 0.25 0.27 0.23 0.25 0.21 0.20 0.18 0.18 0.20 0.21 0.22 0.21
0.39 0.40 0.42 0.45 0.46 0.48 0.50 0.51 0.52 0.53 0.54 0.54 0.56 0.54 0.54 0.54 0.48 0.36 0.31 0.39 0.46 0.44 0.29 0.21 0.21 0.26 0.30 0.29 0.28 0.29 0.32 0.29 0.28 0.26 0.24 0.24 0.24 0.24 0.20 0.16 0.18 0.20 0.24 0.22 0.21 0.20 0.16 0.15 0.15 0.17 0.18 0.19 0.20 0.20
0.39 0.40 0.41 0.42 0.45 0.48 0.51 0.53 0.55 0.54 0.54 0.54 0.56 0.54 0.54 0.53 0.50 0.39 0.44 0.46 0.47 0.36 0.32 0.20 0.19 0.21 0.28 0.22 0.23 0.29 0.26 0.27 0.26 0.24 0.24 0.22 0.23 0.22 0.17 0.18 0.17 0.18 0.18 0.17 0.17 0.17 0.15 0.16 0.15 0.14 0.15 0.15 0.15 0.15
0.39 0.40 0.41 0.43 0.47 0.51 0.53 0.54 0.55 0.54 0.54 0.56 0.54 0.52 0.48 0.42 0.35 0.35 0.45 0.45 0.46 0.35 0.24 0.22 0.17 0.15 0.26 0.23 0.25 0.25 0.26 0.20 0.25 0.20 0.21 0.21 0.19 0.17 0.17 0.16 0.15 0.16 0.15 0.15 0.16 0.15 0.16 0.13 0.12 0.13 0.14 0.14 0.13 0.12
0.39 0.39 0.40 0.42 0.43 0.47 0.52 0.53 0.55 0.54 0.55 0.55 0.47 0.37 0.29 0.37 0.46 0.42 0.33 0.29 0.30 0.29 0.28 0.21 0.23 0.19 0.24 0.22 0.21 0.21 0.23 0.19 0.17 0.19 0.22 0.19 0.17 0.19 0.17 0.16 0.16 0.16 0.16 0.16 0.13 0.11 0.12 0.11 0.10 0.11 0.11 0.11 0.11 0.11
0.38 0.38 0.39 0.41 0.44 0.47 0.48 0.52 0.54 0.55 0.52 0.43 0.34 0.30 0.39 0.45 0.34 0.28 0.23 0.20 0.21 0.19 0.23 0.24 0.24 0.22 0.27 0.19 0.18 0.23 0.19 0.19 0.15 0.17 0.17 0.16 0.14 0.13 0.13 0.14 0.15 0.16 0.16 0.16 0.15 0.13 0.12 0.11 0.10 0.10 0.10 0.11 0.11 0.11
0.37 0.38 0.40 0.42 0.44 0.44 0.45 0.48 0.49 0.48 0.45 0.39 0.36 0.39 0.36 0.28 0.24 0.20 0.18 0.18 0.18 0.18 0.23 0.22 0.23 0.25 0.24 0.24 0.20 0.21 0.18 0.19 0.14 0.20 0.17 0.13 0.13 0.14 0.12 0.12 0.14 0.15 0.15 0.14 0.14 0.12 0.11 0.10 0.10 0.11 0.11 0.11 0.11 0.11
0.38 0.40 0.41 0.43 0.45 0.46 0.46 0.47 0.48 0.44 0.42 0.38 0.30 0.26 0.23 0.22 0.17 0.15 0.12 0.16 0.18 0.22 0.24 0.24 0.22 0.24 0.24 0.22 0.20 0.20 0.17 0.16 0.21 0.16 0.14 0.14 0.14 0.15 0.18 0.17 0.15 0.15 0.16 0.15 0.14 0.12 0.11 0.11 0.11 0.11 0.11 0.12 0.12 0.11
0.40 0.40 0.42 0.44 0.46 0.48 0.48 0.48 0.45 0.42 0.35 0.26 0.22 0.17 0.18 0.17 0.16 0.16 0.16 0.18 0.23 0.25 0.24 0.24 0.22 0.21 0.20 0.16 0.19 0.17 0.19 0.19 0.15 0.14 0.15 0.18 0.17 0.16 0.19 0.24 0.23 0.21 0.21 0.17 0.15 0.12 0.12 0.11 0.11 0.11 0.11 0.12 0.13 0.12
0.42 0.43 0.44 0.45 0.47 0.48 0.48 0.47 0.44 0.39 0.31 0.23 0.22 0.17 0.18 0.21 0.22 0.22 0.23 0.23 0.25 0.26 0.24 0.21 0.20 0.18 0.15 0.14 0.16 0.17 0.16 0.15 0.16 0.17 0.21 0.24 0.24 0.25 0.27 0.28 0.27 0.25 0.23 0.24 0.23 0.17 0.13 0.12 0.12 0.11 0.12 0.12 0.12 0.13
0.44 0.44 0.43 0.47 0.46 0.45 0.46 0.44 0.41 0.36 0.29 0.25 0.23 0.20 0.21 0.21 0.22 0.24 0.25 0.24 0.25 0.23 0.22 0.20 0.16 0.12 0.12 0.13 0.12 0.12 0.13 0.14 0.18 0.22 0.26 0.27 0.27 0.28 0.28 0.29 0.29 0.28 0.27 0.25 0.26 0.23 0.19 0.15 0.12 0.13 0.13 0.13 0.13 0.13
0.41 0.37 0.45 0.45 0.44 0.44 0.43 0.37 0.33 0.27 0.24 0.22 0.21 0.25 0.23 0.23 0.22 0.24 0.26 0.24 0.26 0.21 0.17 0.17 0.12 0.10 0.13 0.11 0.10 0.13 0.12 0.15 0.20 0.22 0.26 0.27 0.27 0.27 0.28 0.28 0.27 0.27 0.27 0.27 0.25 0.25 0.22 0.19 0.16 0.13 0.11 0.12 0.14 0.14
0.37 0.42 0.44 0.43 0.43 0.41 0.36 0.33 0.28 0.25 0.20 0.22 0.20 0.22 0.24 0.25 0.24 0.24 0.24 0.24 0.22 0.19 0.17 0.14 0.15 0.11 0.10 0.09 0.10 0.14 0.17 0.19 0.24 0.25 0.26 0.27 0.28 0.28 0.27 0.26 0.26 0.26 0.25 0.26 0.26 0.25 0.23 0.21 0.17 0.15 0.13 0.13 0.13 0.14
0.40 0.42 0.43 0.43 0.41 0.35 0.29 0.28 0.28 0.21 0.21 0.22 0.23 0.24 0.24 0.24 0.25 0.24 0.24 0.24 0.24 0.22 0.19 0.16 0.13 0.11 0.12 0.15 0.16 0.19 0.22 0.23 0.24 0.25 0.26 0.27 0.28 0.27 0.27 0.26 0.25 0.23 0.23 0.26 0.26 0.25 0.24 0.21 0.19 0.17 0.14 0.14 0.13 0.14
0.43 0.44 0.42 0.41 0.41 0.32 0.26 0.25 0.28 0.23 0.19 0.21 0.22 0.21 0.21 0.21 0.21 0.22 0.22 0.21 0.21 0.20 0.17 0.16 0.16 0.18 0.19 0.22 0.25 0.25 0.26 0.27 0.25 0.24 0.24 0.25 0.27 0.26 0.25 0.23 0.22 0.22 0.23 0.26 0.26 0.25 0.24 0.21 0.19 0.16 0.15 0.15 0.13 0.13
0.40 0.40 0.38 0.36 0.32 0.29 0.25 0.23 0.21 0.22 0.21 0.19 0.20 0.19 0.17 0.17 0.16 0.17 0.19 0.23 0.22 0.21 0.19 0.22 0.23 0.25 0.27 0.28 0.28 0.28 0.27 0.27 0.25 0.24 0.24 0.22 0.23 0.22 0.21 0.22 0.25 0.26 0.26 0.25 0.25 0.24 0.23 0.20 0.17 0.16 0.16 0.14 0.14 0.14
0.37 0.38 0.33 0.32 0.27 0.25 0.22 0.23 0.21 0.20 0.19 0.17 0.18 0.19 0.18 0.18 0.19 0.20 0.22 0.21 0.21 0.23 0.24 0.25 0.25 0.26 0.26 0.26 0.26 0.25 0.23 0.22 0.20 0.19 0.19 0.20 0.19 0.19 0.21 0.25 0.25 0.25 0.25 0.25 0.25 0.23 0.22 0.20 0.18 0.17 0.15 0.14 0.15 0.14
0.39 0.37 0.32 0.28 0.23 0.21 0.19 0.22 0.19 0.19 0.17 0.19 0.20 0.19 0.19 0.19 0.21 0.23 0.20 0.22 0.23 0.26 0.26 0.27 0.27 0.28 0.27 0.25 0.22 0.17 0.16 0.18 0.19 0.20 0.20 0.19 0.20 0.24 0.24 0.25 0.25 0.25 0.24 0.25 0.24 0.22 0.21 0.19 0.17 0.15 0.15 0.14 0.14 0.15
0.39 0.32 0.27 0.25 0.22 0.18 0.20 0.18 0.19 0.18 0.18 0.17 0.18 0.17 0.19 0.21 0.22 0.21 0.20 0.21 0.24 0.26 0.26 0.26 0.26 0.25 0.25 0.22 0.15 0.15 0.18 0.20 0.19 0.19 0.20 0.22 0.22 0.23 0.24 0.24 0.25 0.26 0.26 0.25 0.21 0.19 0.18 0.15 0.15 0.15 0.14 0.14 0.15 0.17
0.28 0.27 0.26 0.21 0.22 0.19 0.16 0.15 0.15 0.14 0.13 0.16 0.17 0.19 0.20 0.22 0.20 0.19 0.19 0.21 0.24 0.25 0.26 0.26 0.25 0.24 0.21 0.19 0.16 0.18 0.20 0.19 0.19 0.20 0.21 0.22 0.22 0.22 0.21 0.22 0.22 0.22 0.21 0.17 0.15 0.14 0.14 0.14 0.15 0.16 0.16 0.17 0.17 0.16
0.22 0.24 0.21 0.20 0.18 0.16 0.15 0.12 0.14 0.15 0.16 0.16 0.18 0.20 0.21 0.20 0.18 0.18 0.20 0.23 0.25 0.25 0.25 0.24 0.23 0.22 0.20 0.19 0.17 0.19 0.20 0.21 0.20 0.17 0.18 0.18 0.16 0.15 0.15 0.14 0.14 0.14 0.16 0.15 0.14 0.15 0.16 0.16 0.16 0.17 0.18 0.18 0.18 0.17
0.21 0.22 0.23 0.24 0.21 0.19 0.17 0.18 0.18 0.17 0.16 0.17 0.19 0.19 0.19 0.17 0.17 0.20 0.24 0.26 0.25 0.25 0.25 0.24 0.23 0.21 0.20 0.18 0.20 0.21 0.22 0.20 0.17 0.17 0.17 0.16 0.15 0.15 0.14 0.13 0.12 0.13 0.15 0.18 0.19 0.19 0.18 0.18 0.18 0.18 0.18 0.18 0.18 0.18
0.22 0.21 0.19 0.22 0.21 0.21 0.18 0.19 0.18 0.18 0.19 0.22 0.22 0.19 0.19 0.19 0.20 0.24 0.25 0.26 0.25 0.25 0.24 0.24 0.22 0.20 0.19 0.18 0.19 0.20 0.20 0.18 0.17 0.17 0.16 0.15 0.16 0.16 0.15 0.15 0.15 0.18 0.20 0.21 0.21 0.20 0.20 0.20 0.19 0.18 0.17 0.18 0.17 0.17
0.17 0.19 0.20 0.20 0.21 0.21 0.21 0.20 0.20 0.22 0.25 0.24 0.22 0.21 0.22 0.25 0.25 0.25 0.25 0.25 0.24 0.23 0.22 0.20 0.19 0.18 0.16 0.15 0.16 0.17 0.18 0.19 0.16 0.14 0.13 0.12 0.13 0.14 0.15 0.15 0.15 0.15 0.17 0.17 0.20 0.21 0.20 0.19 0.18 0.18 0.18 0.16 0.16 0.16
0.19 0.21 0.20 0.21 0.20 0.18 0.20 0.22 0.22 0.25 0.26 0.26 0.25 0.24 0.23 0.23 0.24 0.25 0.24 0.23 0.22 0.21 0.19 0.17 0.15 0.14 0.13 0.13 0.14 0.15 0.17 0.18 0.19 0.18 0.16 0.16 0.16 0.17 0.18 0.17 0.17 0.17 0.17 0.18 0.19 0.20 0.21 0.20 0.18 0.16 0.15 0.15 0.15 0.14
0.23 0.22 0.20 0.20 0.19 0.21 0.22 0.24 0.25 0.25 0.24 0.23 0.24 0.22 0.21 0.22 0.22 0.23 0.22 0.21 0.19 0.17 0.16 0.14 0.14 0.14 0.14 0.15 0.15 0.15 0.15 0.17 0.17 0.17 0.16 0.16 0.16 0.17 0.18 0.18 0.18 0.18 0.18 0.18 0.18 0.19 0.18 0.16 0.14 0.14 0.14 0.13 0.14 0.15
0.24 0.23 0.21 0.19 0.20 0.23 0.24 0.22 0.22 0.21 0.21 0.20 0.20 0.21 0.20 0.20 0.18 0.19 0.19 0.18 0.16 0.15 0.15 0.16 0.15 0.16 0.16 0.16 0.16 0.16 0.17 0.16 0.15 0.15 0.14 0.15 0.15 0.16 0.16 0.16 0.16 0.16 0.17 0.17 0.17 0.16 0.15 0.13 0.13 0.13 0.13 0.14 0.14 0.13
0.23 0.22 0.21 0.21 0.21 0.21 0.21 0.21 0.20 0.19 0.19 0.19 0.18 0.19 0.18 0.17 0.15 0.16 0.17 0.17 0.16 0.16 0.16 0.16 0.17 0.16 0.16 0.17 0.16 0.16 0.15 0.14 0.14 0.15 0.15 0.17 0.18 0.16 0.16 0.16 0.16 0.16 0.16 0.16 0.15 0.14 0.13 0.13 0.13 0.13 0.13 0.13 0.13 0.12

GFSWCAN_prec_pwat_315.txt.gz
Precipitable_Water
0.61 0.54 0.46 0.40 0.39 0.37 0.37 0.41 0.42 0.43 0.45 0.48 0.49 0.48 0.48 0.52 0.54 0.53 0.48 0.53 0.43 0.32 0.33 0.36 0.36 0.30 0.29 0.27 0.21 0.26 0.23 0.23 0.22 0.16 0.15 0.15 0.14 0.17 0.15 0.17 0.15 0.14 0.14 0.13 0.14 0.12 0.10 0.19 0.18 0.15 0.21 0.26 0.26 0.26
0.46 0.39 0.36 0.36 0.38 0.39 0.40 0.41 0.41 0.42 0.42 0.43 0.42 0.42 0.48 0.51 0.54 0.56 0.44 0.52 0.51 0.38 0.35 0.43 0.42 0.42 0.37 0.35 0.30 0.29 0.24 0.23 0.24 0.19 0.19 0.18 0.15 0.17 0.15 0.12 0.19 0.14 0.16 0.16 0.17 0.16 0.21 0.23 0.24 0.28 0.28 0.27 0.28 0.28
0.35 0.34 0.37 0.38 0.39 0.39 0.40 0.42 0.44 0.47 0.48 0.49 0.48 0.51 0.54 0.55 0.55 0.56 0.49 0.49 0.43 0.33 0.32 0.33 0.31 0.39 0.42 0.40 0.41 0.26 0.29 0.30 0.27 0.32 0.24 0.21 0.17 0.19 0.14 0.15 0.17 0.20 0.22 0.18 0.18 0.19 0.24 0.26 0.28 0.29 0.28 0.27 0.28 0.28
0.37 0.37 0.37 0.38 0.39 0.41 0.44 0.46 0.47 0.49 0.51 0.52 0.53 0.54 0.56 0.56 0.55 0.56 0.47 0.48 0.41 0.35 0.24 0.27 0.37 0.33 0.38 0.38 0.39 0.40 0.35 0.36 0.33 0.31 0.24 0.21 0.18 0.23 0.18 0.20 0.19 0.20 0.23 0.20 0.20 0.21 0.25 0.26 0.27 0.27 0.26 0.26 0.26 0.27
0.36 0.37 0.37 0.37 0.40 0.42 0.45 0.48 0.51 0.52 0.54 0.54 0.54 0.55 0.56 0.56 0.56 0.54 0.49 0.47 0.47 0.34 0.24 0.25 0.32 0.34 0.35 0.35 0.34 0.36 0.34 0.32 0.29 0.24 0.22 0.20 0.23 0.23 0.22 0.22 0.19 0.23 0.22 0.19 0.18 0.24 0.23 0.23 0.25 0.24 0.21 0.22 0.24 0.25
0.37 0.36 0.37 0.40 0.42 0.44 0.48 0.51 0.53 0.54 0.55 0.56 0.55 0.55 0.58 0.54 0.54 0.45 0.34 0.42 0.46 0.44 0.28 0.20 0.30 0.29 0.31 0.32 0.32 0.31 0.32 0.31 0.30 0.26 0.24 0.26 0.28 0.24 0.18 0.17 0.22 0.23 0.25 0.26 0.24 0.26 0.24 0.21 0.19 0.17 0.18 0.20 0.22 0.21
0.36 0.38 0.39 0.40 0.41 0.43 0.46 0.48 0.52 0.53 0.55 0.55 0.54 0.56 0.53 0.55 0.49 0.38 0.32 0.39 0.45 0.44 0.29 0.22 0.23 0.27 0.29 0.29 0.28 0.29 0.31 0.29 0.28 0.26 0.24 0.24 0.24 0.24 0.20 0.16 0.21 0.20 0.20 0.21 0.21 0.20 0.17 0.16 0.15 0.17 0.18 0.19 0.21 0.21
0.38 0.39 0.38 0.39 0.41 0.43 0.44 0.46 0.50 0.52 0.53 0.53 0.54 0.55 0.54 0.52 0.50 0.40 0.43 0.46 0.46 0.36 0.32 0.21 0.21 0.22 0.28 0.23 0.22 0.28 0.25 0.27 0.25 0.24 0.24 0.22 0.23 0.22 0.17 0.21 0.19 0.18 0.18 0.17 0.17 0.18 0.16 0.16 0.16 0.15 0.16 0.16 0.16 0.16
0.37 0.38 0.38 0.38 0.40 0.41 0.42 0.44 0.47 0.48 0.49 0.50 0.51 0.51 0.46 0.41 0.35 0.35 0.44 0.45 0.45 0.35 0.24 0.23 0.18 0.16 0.26 0.24 0.25 0.24 0.25 0.20 0.25 0.21 0.21 0.21 0.19 0.17 0.20 0.17 0.16 0.16 0.16 0.16 0.16 0.15 0.15 0.14 0.13 0.13 0.13 0.13 0.13 0.13
0.36 0.38 0.39 0.39 0.40 0.38 0.40 0.42 0.45 0.46 0.46 0.48 0.44 0.34 0.28 0.36 0.43 0.41 0.33 0.29 0.29 0.29 0.29 0.22 0.25 0.21 0.25 0.24 0.21 0.21 0.23 0.19 0.17 0.19 0.22 0.19 0.18 0.20 0.17 0.16 0.16 0.16 0.18 0.17 0.14 0.12 0.13 0.12 0.11 0.11 0.11 0.12 0.12 0.11
0.38 0.40 0.40 0.40 0.40 0.40 0.42 0.45 0.46 0.45 0.47 0.38 0.30 0.27 0.37 0.42 0.34 0.27 0.21 0.19 0.21 0.19 0.24 0.25 0.24 0.22 0.27 0.20 0.19 0.23 0.19 0.19 0.15 0.18 0.17 0.16 0.13 0.13 0.13 0.12 0.14 0.16 0.16 0.17 0.16 0.15 0.14 0.13 0.11 0.10 0.10 0.11 0.11 0.11
0.38 0.39 0.40 0.40 0.41 0.42 0.43 0.46 0.47 0.42 0.38 0.34 0.33 0.36 0.33 0.27 0.23 0.18 0.16 0.19 0.19 0.18 0.23 0.22 0.23 0.25 0.25 0.25 0.21 0.22 0.18 0.19 0.14 0.21 0.16 0.12 0.13 0.15 0.16 0.14 0.13 0.14 0.15 0.15 0.15 0.14 0.13 0.11 0.11 0.11 0.11 0.11 0.11 0.12
0.39 0.39 0.41 0.41 0.44 0.45 0.46 0.46 0.42 0.39 0.38 0.34 0.27 0.23 0.22 0.20 0.15 0.13 0.12 0.16 0.18 0.22 0.24 0.24 0.21 0.23 0.24 0.22 0.20 0.20 0.17 0.16 0.21 0.16 0.14 0.14 0.16 0.15 0.18 0.24 0.21 0.19 0.17 0.15 0.14 0.14 0.13 0.12 0.12 0.12 0.11 0.12 0.11 0.12
0.40 0.40 0.41 0.41 0.43 0.44 0.43 0.42 0.42 0.39 0.33 0.24 0.20 0.15 0.16 0.15 0.17 0.17 0.18 0.19 0.23 0.24 0.23 0.22 0.20 0.20 0.20 0.16 0.19 0.17 0.19 0.20 0.16 0.14 0.16 0.19 0.19 0.18 0.23 0.28 0.27 0.25 0.24 0.23 0.23 0.20 0.14 0.12 0.12 0.12 0.12 0.12 0.12 0.11
0.41 0.40 0.40 0.41 0.42 0.43 0.43 0.43 0.42 0.38 0.29 0.21 0.21 0.15 0.17 0.20 0.22 0.23 0.24 0.23 0.24 0.24 0.22 0.19 0.19 0.19 0.15 0.14 0.15 0.16 0.15 0.14 0.16 0.16 0.21 0.25 0.26 0.27 0.28 0.28 0.28 0.28 0.27 0.26 0.26 0.25 0.24 0.20 0.16 0.13 0.13 0.13 0.13 0.13
0.41 0.40 0.38 0.41 0.40 0.40 0.41 0.40 0.38 0.35 0.28 0.24 0.21 0.19 0.20 0.20 0.21 0.23 0.24 0.23 0.26 0.24 0.22 0.20 0.16 0.13 0.11 0.13 0.12 0.12 0.11 0.12 0.16 0.19 0.23 0.25 0.26 0.27 0.27 0.27 0.27 0.27 0.27 0.26 0.27 0.27 0.26 0.24 0.21 0.18 0.16 0.14 0.13 0.13
0.39 0.34 0.40 0.40 0.41 0.41 0.39 0.34 0.31 0.26 0.23 0.21 0.20 0.24 0.22 0.22 0.22 0.23 0.24 0.24 0.27 0.23 0.16 0.17 0.13 0.10 0.12 0.11 0.10 0.13 0.12 0.15 0.18 0.20 0.23 0.26 0.26 0.26 0.27 0.27 0.27 0.27 0.26 0.26 0.26 0.26 0.26 0.26 0.24 0.20 0.17 0.16 0.14 0.13
0.34 0.38 0.40 0.40 0.40 0.37 0.34 0.32 0.27 0.24 0.19 0.21 0.19 0.22 0.23 0.24 0.23 0.23 0.23 0.24 0.23 0.21 0.18 0.15 0.16 0.12 0.10 0.09 0.11 0.15 0.17 0.20 0.23 0.24 0.26 0.27 0.27 0.28 0.28 0.27 0.27 0.26 0.25 0.25 0.24 0.25 0.26 0.26 0.24 0.21 0.19 0.18 0.15 0.14
0.39 0.40 0.42 0.40 0.38 0.33 0.27 0.26 0.26 0.19 0.20 0.21 0.22 0.23 0.23 0.22 0.23 0.23 0.23 0.24 0.24 0.23 0.21 0.18 0.14 0.12 0.13 0.16 0.17 0.19 0.22 0.24 0.24 0.25 0.26 0.27 0.28 0.27 0.27 0.27 0.26 0.25 0.23 0.23 0.23 0.22 0.25 0.26 0.25 0.23 0.20 0.18 0.15 0.14
0.40 0.42 0.41 0.39 0.38 0.30 0.24 0.23 0.26 0.21 0.18 0.19 0.20 0.19 0.19 0.19 0.20 0.20 0.21 0.22 0.23 0.23 0.20 0.18 0.18 0.20 0.20 0.23 0.25 0.25 0.26 0.27 0.25 0.23 0.22 0.24 0.25 0.24 0.23 0.22 0.21 0.22 0.23 0.24 0.24 0.25 0.26 0.25 0.25 0.23 0.21 0.18 0.15 0.14
0.37 0.39 0.39 0.36 0.32 0.30 0.24 0.21 0.20 0.20 0.19 0.18 0.18 0.18 0.19 0.20 0.20 0.20 0.22 0.24 0.22 0.21 0.20 0.23 0.23 0.25 0.27 0.28 0.28 0.27 0.25 0.24 0.22 0.20 0.18 0.18 0.21 0.22 0.21 0.21 0.22 0.24 0.25 0.25 0.24 0.24 0.25 0.24 0.24 0.22 0.19 0.17 0.17 0.16
0.35 0.40 0.36 0.35 0.31 0.29 0.24 0.23 0.20 0.20 0.19 0.18 0.20 0.20 0.19 0.19 0.20 0.21 0.22 0.21 0.21 0.23 0.25 0.25 0.25 0.26 0.26 0.27 0.27 0.25 0.22 0.17 0.17 0.18 0.21 0.21 0.19 0.19 0.20 0.23 0.24 0.23 0.24 0.24 0.24 0.24 0.24 0.24 0.23 0.20 0.17 0.17 0.17 0.15
0.37 0.36 0.34 0.32 0.28 0.26 0.23 0.24 0.19 0.19 0.17 0.18 0.19 0.17 0.19 0.19 0.21 0.22 0.20 0.22 0.23 0.25 0.26 0.26 0.27 0.27 0.27 0.27 0.26 0.23 0.17 0.17 0.19 0.19 0.18 0.19 0.21 0.22 0.22 0.23 0.23 0.23 0.23 0.24 0.25 0.25 0.23 0.23 0.21 0.18 0.16 0.15 0.15 0.14
0.35 0.31 0.28 0.27 0.26 0.22 0.23 0.19 0.20 0.18 0.17 0.16 0.15 0.14 0.16 0.19 0.21 0.20 0.19 0.21 0.24 0.26 0.26 0.26 0.26 0.25 0.25 0.24 0.21 0.19 0.18 0.20 0.19 0.19 0.20 0.20 0.20 0.21 0.22 0.22 0.23 0.23 0.24 0.24 0.24 0.21 0.20 0.19 0.18 0.16 0.14 0.14 0.14 0.15
0.22 0.22 0.25 0.22 0.25 0.22 0.19 0.18 0.17 0.16 0.14 0.14 0.14 0.15 0.17 0.20 0.18 0.18 0.18 0.21 0.23 0.25 0.26 0.26 0.25 0.24 0.22 0.21 0.20 0.20 0.20 0.21 0.20 0.18 0.18 0.18 0.17 0.16 0.17 0.18 0.19 0.20 0.20 0.18 0.15 0.14 0.15 0.16 0.17 0.17 0.17 0.16 0.16 0.16
0.15 0.19 0.21 0.22 0.22 0.20 0.19 0.16 0.15 0.15 0.15 0.15 0.16 0.18 0.19 0.18 0.17 0.17 0.19 0.22 0.24 0.26 0.26 0.25 0.23 0.22 0.21 0.21 0.19 0.19 0.20 0.22 0.19 0.16 0.16 0.16 0.15 0.13 0.12 0.12 0.12 0.13 0.15 0.15 0.14 0.14 0.15 0.16 0.17 0.17 0.17 0.18 0.18 0.18
0.12 0.15 0.21 0.24 0.21 0.19 0.17 0.19 0.20 0.19 0.17 0.16 0.18 0.18 0.18 0.17 0.17 0.20 0.24 0.26 0.26 0.27 0.26 0.25 0.24 0.22 0.21 0.19 0.19 0.20 0.21 0.20 0.17 0.16 0.16 0.15 0.15 0.15 0.14 0.13 0.12 0.13 0.15 0.16 0.18 0.18 0.18 0.18 0.18 0.18 0.18 0.18 0.19 0.19
0.15 0.17 0.16 0.18 0.18 0.19 0.16 0.17 0.18 0.18 0.19 0.22 0.21 0.19 0.19 0.19 0.20 0.24 0.26 0.27 0.26 0.25 0.24 0.23 0.23 0.21 0.19 0.18 0.16 0.16 0.18 0.19 0.18 0.17 0.16 0.16 0.16 0.16 0.16 0.16 0.16 0.16 0.17 0.19 0.19 0.19 0.19 0.19 0.18 0.18 0.18 0.17 0.17 0.19
0.16 0.18 0.17 0.14 0.16 0.17 0.18 0.18 0.19 0.22 0.22 0.21 0.19 0.20 0.22 0.24 0.25 0.25 0.25 0.25 0.24 0.23 0.22 0.21 0.20 0.19 0.16 0.14 0.14 0.15 0.17 0.18 0.18 0.17 0.16 0.15 0.16 0.16 0.18 0.17 0.17 0.16 0.16 0.16 0.17 0.18 0.18 0.18 0.19 0.18 0.17 0.17 0.18 0.18
0.15 0.17 0.14 0.14 0.16 0.17 0.21 0.23 0.23 0.24 0.25 0.25 0.26 0.25 0.25 0.25 0.25 0.26 0.25 0.24 0.22 0.21 0.20 0.19 0.17 0.15 0.13 0.13 0.14 0.16 0.18 0.18 0.17 0.16 0.15 0.15 0.16 0.17 0.17 0.17 0.17 0.17 0.17 0.17 0.18 0.18 0.19 0.19 0.19 0.18 0.17 0.17 0.16 0.15
0.16 0.16 0.15 0.16 0.18 0.22 0.23 0.24 0.24 0.24 0.25 0.25 0.25 0.24 0.23 0.23 0.23 0.24 0.23 0.22 0.21 0.20 0.18 0.15 0.14 0.15 0.15 0.15 0.15 0.15 0.15 0.17 0.17 0.16 0.16 0.15 0.14 0.14 0.15 0.15 0.15 0.15 0.16 0.17 0.17 0.17 0.17 0.16 0.16 0.15 0.14 0.14 0.13 0.13
0.17 0.16 0.18 0.18 0.20 0.23 0.23 0.22 0.23 0.23 0.23 0.22 0.22 0.22 0.22 0.21 0.20 0.21 0.21 0.20 0.19 0.17 0.16 0.15 0.15 0.16 0.17 0.17 0.16 0.16 0.17 0.16 0.16 0.15 0.14 0.14 0.14 0.14 0.14 0.15 0.15 0.15 0.16 0.16 0.16 0.15 0.15 0.13 0.13 0.12 0.12 0.12 0.13 0.13
0.21 0.22 0.22 0.21 0.21 0.21 0.22 0.22 0.21 0.21 0.21 0.20 0.20 0.20 0.20 0.19 0.17 0.19 0.20 0.19 0.18 0.16 0.16 0.16 0.16 0.17 0.17 0.16 0.16 0.16 0.16 0.15 0.15 0.15 0.15 0.16 0.17 0.15 0.15 0.15 0.15 0.15 0.15 0.14 0.14 0.13 0.13 0.12 0.12 0.13 0.12 0.12 0.12 0.12

GFSWCAN_prec_pwat_321.txt.gz
Precipitable_Water
0.40 0.40 0.39 0.39 0.39 0.38 0.39 0.41 0.43 0.45 0.48 0.50 0.52 0.53 0.53 0.53 0.53 0.51 0.48 0.53 0.42 0.33 0.32 0.33 0.31 0.28 0.29 0.28 0.21 0.25 0.23 0.22 0.20 0.16 0.15 0.15 0.14 0.15 0.15 0.17 0.16 0.15 0.13 0.12 0.13 0.11 0.09 0.21 0.20 0.15 0.21 0.24 0.24 0.25
0.40 0.39 0.39 0.39 0.38 0.39 0.39 0.41 0.42 0.44 0.45 0.47 0.48 0.50 0.50 0.50 0.51 0.51 0.39 0.50 0.49 0.34 0.29 0.38 0.38 0.40 0.37 0.36 0.30 0.28 0.24 0.24 0.25 0.19 0.19 0.18 0.16 0.16 0.16 0.11 0.18 0.13 0.17 0.15 0.17 0.16 0.23 0.26 0.24 0.28 0.28 0.26 0.27 0.27
0.39 0.38 0.38 0.38 0.37 0.38 0.39 0.39 0.40 0.42 0.42 0.43 0.45 0.48 0.48 0.49 0.49 0.47 0.43 0.45 0.39 0.28 0.27 0.30 0.28 0.36 0.37 0.36 0.39 0.24 0.27 0.30 0.28 0.31 0.23 0.20 0.15 0.18 0.13 0.15 0.17 0.19 0.23 0.18 0.18 0.21 0.22 0.24 0.27 0.28 0.28 0.27 0.28 0.28
0.38 0.37 0.38 0.37 0.37 0.38 0.39 0.39 0.38 0.38 0.39 0.41 0.43 0.45 0.47 0.47 0.48 0.46 0.41 0.42 0.34 0.28 0.19 0.23 0.37 0.31 0.35 0.35 0.35 0.37 0.34 0.35 0.33 0.31 0.23 0.20 0.17 0.24 0.18 0.19 0.18 0.20 0.21 0.19 0.18 0.22 0.24 0.25 0.26 0.26 0.26 0.27 0.26 0.26
0.37 0.36 0.37 0.36 0.37 0.38 0.39 0.38 0.38 0.38 0.40 0.42 0.42 0.44 0.44 0.45 0.45 0.41 0.41 0.40 0.39 0.27 0.19 0.23 0.33 0.32 0.32 0.31 0.31 0.33 0.32 0.29 0.27 0.23 0.22 0.19 0.24 0.23 0.23 0.22 0.19 0.24 0.21 0.18 0.16 0.23 0.23 0.23 0.26 0.27 0.23 0.21 0.21 0.23
0.38 0.36 0.36 0.37 0.38 0.38 0.38 0.38 0.39 0.38 0.39 0.41 0.42 0.43 0.44 0.43 0.43 0.37 0.27 0.36 0.40 0.38 0.25 0.18 0.31 0.28 0.28 0.30 0.28 0.28 0.29 0.29 0.29 0.25 0.24 0.26 0.28 0.24 0.18 0.16 0.22 0.25 0.25 0.23 0.19 0.24 0.24 0.25 0.24 0.21 0.17 0.17 0.21 0.22
0.35 0.35 0.36 0.37 0.37 0.38 0.38 0.39 0.39 0.39 0.40 0.42 0.43 0.44 0.43 0.41 0.37 0.29 0.26 0.37 0.43 0.40 0.25 0.19 0.20 0.27 0.29 0.28 0.28 0.26 0.28 0.27 0.27 0.25 0.23 0.23 0.23 0.24 0.20 0.16 0.22 0.22 0.20 0.20 0.19 0.18 0.16 0.18 0.15 0.17 0.17 0.19 0.21 0.20
0.34 0.36 0.36 0.36 0.37 0.39 0.39 0.40 0.40 0.40 0.41 0.43 0.44 0.43 0.42 0.40 0.35 0.28 0.35 0.41 0.41 0.32 0.28 0.18 0.19 0.23 0.29 0.24 0.22 0.26 0.23 0.25 0.24 0.23 0.24 0.20 0.22 0.22 0.17 0.21 0.20 0.19 0.19 0.18 0.17 0.17 0.15 0.16 0.16 0.15 0.17 0.18 0.17 0.17
0.35 0.36 0.36 0.37 0.38 0.39 0.41 0.42 0.41 0.41 0.40 0.40 0.40 0.40 0.35 0.30 0.25 0.28 0.39 0.39 0.39 0.30 0.21 0.21 0.18 0.16 0.28 0.25 0.26 0.25 0.25 0.19 0.24 0.20 0.20 0.21 0.19 0.16 0.18 0.14 0.12 0.13 0.14 0.16 0.17 0.16 0.15 0.15 0.14 0.13 0.14 0.14 0.14 0.15
0.36 0.35 0.36 0.38 0.39 0.40 0.42 0.40 0.40 0.40 0.39 0.40 0.33 0.25 0.19 0.27 0.37 0.36 0.28 0.23 0.22 0.24 0.25 0.20 0.23 0.18 0.23 0.21 0.22 0.21 0.22 0.18 0.16 0.19 0.21 0.17 0.14 0.16 0.16 0.16 0.12 0.13 0.16 0.17 0.14 0.13 0.14 0.12 0.12 0.11 0.11 0.12 0.13 0.13
0.37 0.37 0.37 0.39 0.40 0.41 0.40 0.40 0.39 0.38 0.37 0.29 0.23 0.20 0.28 0.35 0.28 0.22 0.16 0.16 0.18 0.18 0.21 0.21 0.21 0.18 0.25 0.17 0.19 0.22 0.19 0.19 0.15 0.17 0.15 0.13 0.13 0.16 0.21 0.21 0.17 0.15 0.15 0.16 0.16 0.15 0.15 0.13 0.12 0.11 0.11 0.12 0.12 0.12
0.36 0.36 0.36 0.40 0.39 0.38 0.38 0.38 0.39 0.33 0.31 0.30 0.29 0.30 0.28 0.21 0.18 0.14 0.14 0.17 0.17 0.15 0.20 0.19 0.19 0.20 0.21 0.23 0.20 0.21 0.18 0.19 0.14 0.20 0.15 0.12 0.15 0.14 0.18 0.24 0.25 0.24 0.21 0.18 0.17 0.15 0.14 0.14 0.13 0.12 0.12 0.11 0.12 0.13
0.38 0.38 0.37 0.38 0.38 0.38 0.39 0.40 0.40 0.39 0.38 0.32 0.25 0.19 0.17 0.16 0.12 0.12 0.11 0.13 0.15 0.20 0.22 0.22 0.17 0.20 0.22 0.21 0.18 0.19 0.17 0.16 0.21 0.16 0.15 0.17 0.19 0.19 0.22 0.27 0.28 0.28 0.27 0.26 0.25 0.24 0.24 0.22 0.20 0.16 0.13 0.13 0.13 0.13
0.37 0.37 0.37 0.37 0.37 0.39 0.39 0.40 0.40 0.36 0.30 0.21 0.17 0.12 0.13 0.12 0.14 0.15 0.16 0.17 0.21 0.22 0.22 0.21 0.18 0.17 0.19 0.15 0.15 0.14 0.17 0.18 0.14 0.13 0.13 0.18 0.21 0.23 0.26 0.27 0.26 0.25 0.26 0.25 0.25 0.25 0.25 0.25 0.25 0.24 0.22 0.20 0.19 0.16
0.36 0.36 0.38 0.37 0.37 0.39 0.39 0.39 0.38 0.33 0.26 0.18 0.18 0.12 0.13 0.17 0.19 0.19 0.21 0.20 0.23 0.24 0.22 0.19 0.17 0.17 0.14 0.13 0.14 0.13 0.12 0.10 0.13 0.13 0.18 0.21 0.23 0.23 0.24 0.25 0.25 0.25 0.25 0.25 0.25 0.25 0.25 0.25 0.25 0.26 0.26 0.24 0.22 0.20
0.37 0.36 0.36 0.38 0.38 0.38 0.37 0.35 0.33 0.30 0.25 0.20 0.18 0.15 0.17 0.16 0.16 0.19 0.20 0.20 0.24 0.23 0.22 0.19 0.14 0.12 0.10 0.11 0.10 0.10 0.10 0.09 0.14 0.18 0.21 0.22 0.22 0.25 0.26 0.27 0.26 0.26 0.26 0.26 0.26 0.26 0.26 0.25 0.25 0.25 0.26 0.26 0.25 0.23
0.38 0.32 0.37 0.38 0.39 0.38 0.34 0.30 0.27 0.22 0.20 0.17 0.15 0.19 0.18 0.17 0.16 0.19 0.21 0.21 0.24 0.20 0.16 0.16 0.12 0.11 0.13 0.10 0.09 0.12 0.11 0.15 0.18 0.20 0.24 0.27 0.26 0.26 0.26 0.25 0.25 0.25 0.25 0.25 0.25 0.25 0.25 0.26 0.26 0.25 0.23 0.25 0.26 0.24
0.33 0.36 0.38 0.38 0.38 0.35 0.31 0.28 0.23 0.20 0.16 0.17 0.14 0.16 0.19 0.20 0.19 0.20 0.21 0.23 0.22 0.21 0.21 0.18 0.19 0.14 0.13 0.11 0.12 0.16 0.19 0.22 0.25 0.26 0.25 0.25 0.24 0.23 0.22 0.20 0.20 0.21 0.21 0.21 0.21 0.21 0.22 0.22 0.21 0.22 0.24 0.25 0.25 0.24
0.36 0.38 0.37 0.36 0.37 0.31 0.25 0.26 0.25 0.17 0.18 0.20 0.19 0.19 0.19 0.19 0.21 0.22 0.24 0.25 0.26 0.27 0.24 0.21 0.17 0.16 0.16 0.19 0.19 0.21 0.23 0.24 0.24 0.25 0.24 0.24 0.20 0.19 0.20 0.21 0.21 0.21 0.21 0.20 0.21 0.21 0.22 0.23 0.22 0.23 0.23 0.24 0.24 0.24
0.39 0.37 0.35 0.33 0.36 0.27 0.24 0.24 0.28 0.21 0.18 0.21 0.22 0.19 0.18 0.18 0.20 0.22 0.23 0.24 0.24 0.23 0.21 0.19 0.19 0.20 0.21 0.23 0.24 0.24 0.25 0.26 0.25 0.23 0.20 0.16 0.19 0.20 0.20 0.20 0.20 0.21 0.22 0.22 0.22 0.23 0.23 0.23 0.23 0.24 0.24 0.24 0.23 0.22
0.34 0.34 0.32 0.30 0.26 0.25 0.23 0.23 0.22 0.22 0.22 0.21 0.22 0.20 0.17 0.18 0.18 0.18 0.19 0.23 0.21 0.20 0.19 0.21 0.22 0.24 0.26 0.26 0.27 0.27 0.26 0.25 0.23 0.20 0.18 0.18 0.20 0.20 0.20 0.20 0.21 0.21 0.20 0.20 0.20 0.20 0.21 0.21 0.22 0.23 0.23 0.23 0.23 0.21
0.32 0.35 0.28 0.28 0.22 0.23 0.21 0.23 0.20 0.23 0.22 0.21 0.20 0.19 0.16 0.15 0.15 0.16 0.18 0.17 0.17 0.19 0.21 0.22 0.23 0.25 0.25 0.25 0.26 0.26 0.25 0.23 0.21 0.21 0.21 0.21 0.19 0.18 0.19 0.19 0.19 0.19 0.19 0.20 0.20 0.20 0.20 0.21 0.22 0.22 0.22 0.21 0.21 0.18
0.33 0.30 0.26 0.24 0.19 0.18 0.16 0.21 0.19 0.21 0.20 0.20 0.21 0.18 0.17 0.16 0.16 0.18 0.15 0.16 0.17 0.20 0.23 0.24 0.25 0.26 0.25 0.26 0.26 0.25 0.23 0.21 0.20 0.21 0.21 0.20 0.18 0.18 0.17 0.16 0.17 0.17 0.18 0.19 0.20 0.20 0.19 0.20 0.20 0.19 0.19 0.17 0.15 0.15
0.33 0.25 0.19 0.18 0.17 0.15 0.18 0.16 0.18 0.20 0.21 0.19 0.18 0.16 0.17 0.17 0.18 0.16 0.14 0.16 0.19 0.21 0.22 0.24 0.25 0.24 0.25 0.26 0.24 0.23 0.22 0.21 0.20 0.21 0.20 0.18 0.16 0.15 0.15 0.14 0.14 0.14 0.15 0.16 0.16 0.16 0.15 0.15 0.17 0.17 0.17 0.17 0.16 0.15
0.20 0.18 0.18 0.15 0.18 0.15 0.14 0.13 0.13 0.14 0.16 0.18 0.15 0.14 0.14 0.16 0.14 0.15 0.16 0.18 0.21 0.22 0.23 0.25 0.25 0.26 0.25 0.24 0.24 0.22 0.21 0.20 0.19 0.19 0.18 0.16 0.15 0.14 0.14 0.14 0.14 0.15 0.15 0.13 0.13 0.14 0.14 0.15 0.16 0.17 0.17 0.18 0.17 0.16
0.15 0.16 0.14 0.15 0.16 0.14 0.15 0.12 0.12 0.11 0.12 0.14 0.15 0.15 0.16 0.14 0.14 0.14 0.17 0.21 0.23 0.24 0.25 0.25 0.25 0.25 0.24 0.23 0.21 0.20 0.19 0.18 0.18 0.18 0.16 0.15 0.14 0.14 0.14 0.13 0.13 0.13 0.15 0.15 0.14 0.13 0.14 0.15 0.16 0.16 0.16 0.17 0.17 0.17
0.15 0.13 0.17 0.20 0.19 0.19 0.17 0.16 0.15 0.13 0.11 0.11 0.15 0.15 0.13 0.11 0.12 0.17 0.22 0.25 0.25 0.26 0.27 0.27 0.26 0.24 0.23 0.22 0.21 0.20 0.18 0.17 0.17 0.17 0.17 0.17 0.17 0.17 0.16 0.15 0.14 0.15 0.17 0.17 0.16 0.14 0.13 0.14 0.14 0.15 0.16 0.16 0.16 0.16
0.17 0.17 0.13 0.16 0.16 0.17 0.15 0.14 0.13 0.12 0.13 0.16 0.17 0.13 0.12 0.12 0.14 0.20 0.23 0.25 0.26 0.27 0.27 0.27 0.26 0.25 0.23 0.22 0.20 0.18 0.17 0.16 0.17 0.19 0.20 0.19 0.20 0.19 0.19 0.19 0.19 0.19 0.18 0.16 0.16 0.16 0.16 0.15 0.15 0.15 0.15 0.15 0.16 0.17
0.16 0.18 0.18 0.15 0.16 0.16 0.16 0.15 0.15 0.17 0.20 0.19 0.15 0.14 0.15 0.18 0.20 0.22 0.25 0.26 0.27 0.27 0.26 0.25 0.25 0.24 0.23 0.21 0.19 0.18 0.16 0.16 0.16 0.15 0.15 0.15 0.15 0.16 0.17 0.16 0.16 0.15 0.14 0.13 0.14 0.15 0.16 0.16 0.16 0.15 0.15 0.16 0.16 0.17
0.17 0.21 0.18 0.17 0.16 0.15 0.16 0.18 0.17 0.19 0.21 0.21 0.21 0.19 0.19 0.20 0.23 0.26 0.26 0.26 0.25 0.24 0.24 0.24 0.23 0.22 0.20 0.18 0.16 0.16 0.16 0.17 0.17 0.16 0.15 0.15 0.15 0.16 0.15 0.14 0.13 0.13 0.13 0.13 0.13 0.14 0.16 0.15 0.15 0.15 0.14 0.14 0.14 0.13
0.20 0.19 0.18 0.17 0.16 0.18 0.20 0.21 0.21 0.21 0.21 0.20 0.20 0.19 0.20 0.22 0.23 0.25 0.24 0.24 0.24 0.23 0.23 0.22 0.22 0.21 0.19 0.17 0.16 0.16 0.16 0.18 0.18 0.17 0.17 0.17 0.17 0.16 0.14 0.13 0.13 0.13 0.13 0.13 0.14 0.14 0.14 0.13 0.12 0.12 0.12 0.12 0.12 0.12
0.19 0.18 0.17 0.16 0.17 0.20 0.21 0.20 0.19 0.19 0.19 0.20 0.20 0.21 0.21 0.21 0.20 0.21 0.23 0.23 0.22 0.21 0.22 0.21 0.20 0.18 0.18 0.18 0.18 0.18 0.18 0.17 0.17 0.18 0.18 0.17 0.16 0.15 0.14 0.14 0.13 0.13 0.13 0.13 0.13 0.13 0.12 0.11 0.11 0.11 0.11 0.11 0.11 0.11
0.19 0.19 0.19 0.19 0.18 0.18 0.20 0.20 0.18 0.18 0.19 0.19 0.19 0.20 0.20 0.19 0.18 0.20 0.22 0.22 0.21 0.21 0.20 0.19 0.19 0.19 0.18 0.18 0.17 0.17 0.18 0.17 0.17 0.18 0.18 0.18 0.18 0.16 0.15 0.14 0.14 0.14 0.13 0.13 0.12 0.12 0.11 0.11 0.11 0.10 0.10 0.10 0.10 0.10